User: anonymous   Login
Location: Lafig�re
(44.4503°N, 4.0357°E)
Time: 02:00:41
(UTC+00:00)
Language:

Transit 2A Rocket - Orbit

View from above orbital plane
View from above orbital plane
View from above satellite
View from above satellite

Ground track
Ground track

The orbit data is extracted from the following two-line orbital elements,

1 00047U 60007C   21125.42677997 -.00000004  00000-0  24108-4 0  9990
2 00047  66.6679  14.0613 0220562  66.9000 295.5185 14.42148728181103
Epoch (UTC): 05 May 2021 10:14:33
Eccentricity: 0.0220562
inclination: 66.6679°
perigee height: 594 km
apogee height: 908 km
right ascension of ascending node: 14.0613°
argument of perigee: 66.9000°
revolutions per day: 14.42148728
mean anomaly at epoch: 295.5185°
orbit number at epoch: 18110

The dashed part of the orbit path shows where the satellite is in the earth's shadow,  

DLR